Overview Statistics Trail Chart Weather Telemetry Raw packets
 

This is the latest recevied weather packets stored in our database for station/object KB3FKJ. If no packets are shown the sender has not sent any weather packets the latest 10 day(s).

<< 1 2 3 4 5 6 >>
Time Temp. Humidity Pressure Rain* Wind** Luminosity Snow
1788537044 25.56° C 78% 1015.4 hPa 0 mm - 73 W/m² -
1788536746 25° C 78% 1015.1 hPa 0 mm - 68 W/m² -
1788536433 25° C 78% 1015.2 hPa 0 mm - 70 W/m² -
1788536132 25° C 76% 1015.6 hPa 0 mm - 71 W/m² -
1788535829 25° C 77% 1015.7 hPa 0 mm - 67 W/m² -
1788535524 24.44° C 77% 1015.4 hPa 0 mm - 78 W/m² -
1788535222 24.44° C 76% 1015.5 hPa 0 mm - 78 W/m² -
1788534915 24.44° C 76% 1015.6 hPa 0 mm - 79 W/m² -
1788534614 24.44° C 78% 1015.4 hPa 0 mm - 120 W/m² -
1788534314 24.44° C 77% 1015.5 hPa 0 mm - 116 W/m² -
1788534009 23.89° C 79% 1015.5 hPa 0 mm - 181 W/m² -
1788533704 23.89° C 79% 1015.5 hPa 0 mm - 84 W/m² -
1788533399 24.44° C 79% 1015.4 hPa 0 mm - 83 W/m² -
1788533094 23.89° C 80% 1015.4 hPa 0 mm - 92 W/m² -
1788532790 23.89° C 78% 1015.2 hPa 0 mm - 63 W/m² -
1788532486 23.33° C 82% 1015.4 hPa 0 mm - 65 W/m² -
1788532183 23.33° C 79% 1015.5 hPa 0 mm - 53 W/m² -
1788531879 23.33° C 79% 1015.4 hPa 0 mm - 58 W/m² -
1788531578 23.33° C 81% 1015.7 hPa 0 mm - 51 W/m² -
1788531268 23.33° C 81% 1015.7 hPa 0 mm - 63 W/m² -
1788530965 23.89° C 80% 1015.7 hPa 0 mm - 48 W/m² -
1788530664 23.33° C 82% 1015.5 hPa 0 mm - 53 W/m² -
1788530363 22.78° C 82% 1015.6 hPa 0 mm - 45 W/m² -
1788530063 22.78° C 81% 1015.6 hPa 0 mm - 41 W/m² -
1788529759 23.33° C 82% 1015.5 hPa 0 mm - 53 W/m² -

* Rain latest hour (hover to see other rain measurements)
** Current wind speed in m/s (hover to see current wind gust speed)